Theta_e
308 308 310 312 312 310 309 310 312 316 318 320 322 324 325 324 323 323 324 324 325 325 324 321 319 323 328 329 329 321 323 326 327 325 324 323 323 325 326 327 328 329 331 332 332
307 308 309 309 309 310 310 309 309 310 315 319 320 323 324 324 323 323 324 322 324 324 324 322 321 326 329 329 331 328 325 325 324 317 317 320 322 325 326 328 329 329 332 331 332
308 305 305 307 309 311 311 309 308 308 310 316 316 318 323 324 323 324 323 323 323 324 324 323 323 327 323 327 327 324 329 324 326 318 318 317 322 323 325 325 326 326 330 331 332
309 309 308 305 305 306 309 310 309 308 309 314 314 319 321 323 328 323 323 322 322 324 324 326 326 323 320 320 327 329 328 327 325 318 316 317 318 322 323 324 324 325 323 329 331
309 308 308 307 305 305 304 305 308 308 309 312 313 314 321 323 322 320 322 323 322 324 323 325 324 324 324 322 321 324 327 328 329 328 318 315 317 319 321 322 322 326 326 327 329
308 308 308 307 306 305 303 302 305 309 310 310 313 313 313 321 322 319 321 322 322 324 323 325 325 324 325 324 325 326 327 327 329 328 322 314 316 316 319 321 322 325 327 326 328
306 307 307 307 306 305 304 303 304 308 309 310 310 314 312 315 322 321 321 321 321 323 324 323 324 325 326 324 326 325 327 320 323 326 322 317 322 314 318 321 322 327 328 326 325
306 306 307 306 305 305 304 303 304 307 308 309 310 312 312 313 320 323 322 320 321 323 323 322 326 327 326 323 323 325 322 326 321 320 322 324 330 322 318 322 324 328 329 328 325
306 306 306 306 305 306 305 304 305 306 308 310 311 312 312 313 315 320 322 321 323 322 322 323 325 326 323 319 321 322 325 326 325 318 314 318 328 325 322 317 326 327 329 328 326
306 306 306 306 305 305 304 305 305 307 307 310 310 312 311 313 314 317 321 320 321 320 321 322 323 321 324 322 324 322 326 323 326 320 312 312 315 316 319 319 318 324 328 328 326
307 306 306 306 304 304 302 304 307 309 309 309 311 311 312 313 315 316 320 321 320 320 322 322 325 325 324 323 321 321 323 323 321 319 318 318 319 316 317 315 314 318 327 327 326
306 306 306 305 305 301 301 306 307 309 310 309 310 311 311 313 316 318 320 320 320 322 320 322 325 322 321 322 323 320 323 324 322 319 320 319 320 317 315 316 315 316 319 323 325
305 306 305 304 301 300 302 305 308 309 310 310 309 311 313 313 315 318 319 320 320 320 320 321 320 319 323 324 324 325 324 324 326 317 318 319 320 318 317 317 318 318 316 317 319
305 306 304 299 303 306 307 306 308 309 309 308 311 310 312 312 312 317 319 320 320 320 319 319 318 320 323 324 323 326 324 324 321 321 324 319 327 320 320 320 318 318 319 317 318
305 305 301 304 306 305 306 308 309 308 303 308 312 311 312 313 313 313 319 319 321 320 318 319 318 321 323 323 323 325 325 327 321 321 318 320 326 320 317 321 321 320 320 320 321
305 301 307 306 306 307 307 308 308 308 305 310 312 312 312 312 315 316 316 320 320 319 318 317 318 320 321 320 322 314 317 319 318 321 326 322 324 322 318 319 318 320 321 322 322
301 303 307 305 306 305 306 306 307 308 305 311 313 312 313 313 314 315 319 321 321 321 321 319 321 319 321 321 318 319 324 325 327 325 329 318 320 326 318 316 315 317 320 322 323
300 304 306 305 305 306 306 304 301 300 305 308 310 313 312 313 313 316 320 321 319 319 320 320 323 322 321 321 321 323 326 326 331 327 326 312 319 320 316 320 319 318 320 320 321
305 306 305 305 305 304 304 305 306 299 307 308 311 313 313 313 313 313 319 321 319 318 321 319 321 319 320 315 318 322 326 318 310 301 313 314 313 312 312 311 312 313 313 315 317
305 304 304 304 303 304 299 301 300 305 305 306 311 314 315 314 315 313 320 318 319 317 314 316 319 320 318 317 316 320 318 321 318 318 317 315 313 317 314 313 311 310 311 313 314
303 301 303 304 302 301 295 295 300 304 305 305 307 311 315 313 316 316 317 317 318 316 312 314 316 315 316 320 320 320 322 319 316 315 317 316 315 310 314 311 312 310 314 313 313
299 300 301 301 300 290 296 299 303 306 305 305 306 306 307 311 316 317 312 319 317 316 316 311 314 318 321 310 311 316 323 321 327 319 313 314 314 311 309 308 309 311 312 312 313
300 301 301 301 297 298 296 302 304 305 306 306 305 306 308 312 316 318 315 315 317 315 314 310 314 318 315 313 313 319 318 321 314 312 314 315 315 307 305 306 308 309 310 311 311
300 300 300 301 299 293 293 297 300 304 304 304 305 306 306 307 315 317 317 314 316 316 312 311 312 316 319 320 318 320 319 320 319 321 318 317 315 309 306 305 305 308 310 309 309
300 298 301 300 300 299 296 298 301 302 304 305 306 306 307 311 313 318 317 314 316 315 310 311 311 312 312 314 316 318 319 320 321 320 320 319 314 309 306 305 306 310 309 309 310
299 299 299 289 300 300 300 294 299 299 304 307 307 308 308 309 311 313 317 316 317 312 313 310 308 308 307 313 316 318 316 318 316 317 316 316 315 311 308 308 306 308 309 309 310
301 300 301 300 299 299 299 296 301 303 303 305 306 308 309 310 310 314 316 315 315 315 316 312 307 312 306 309 312 313 315 316 318 317 317 317 316 310 310 306 307 307 309 310 310
Wind_Speed
32 31 32 30 27 27 28 26 26 24 23 22 30 30 25 22 19 19 21 20 19 10 10 8 8 8 5 5 7 4 2 3 3 1 5 4 3 4 6 12 7 8 8 5 32
33 32 31 32 30 27 26 26 25 26 26 26 23 28 25 24 20 25 24 21 18 11 14 12 11 10 6 5 7 4 3 5 1 2 3 7 3 10 5 8 4 7 8 16 32
35 33 33 33 32 30 26 25 25 26 25 29 25 21 27 24 20 24 25 24 22 18 16 10 11 12 5 6 6 7 5 3 5 5 7 6 2 4 13 3 11 14 17 25 34
36 33 30 30 29 33 30 26 25 24 24 27 25 22 24 27 8 10 30 28 26 23 19 16 20 13 7 6 8 3 10 7 4 5 7 5 8 3 11 5 5 10 15 24 36
39 36 34 30 30 27 29 29 27 26 25 18 30 23 22 23 32 1 17 34 29 28 24 24 25 13 7 8 9 3 5 11 19 14 10 13 8 7 10 8 4 12 19 23 32
40 38 35 31 29 29 27 26 27 26 24 20 22 28 23 24 28 19 13 31 37 34 30 28 20 20 13 10 9 10 11 7 14 20 12 5 7 3 8 11 11 15 22 24 29
42 38 35 32 29 30 28 26 25 27 25 21 17 25 26 32 10 38 19 19 39 38 35 32 20 20 13 8 11 5 6 3 10 11 6 5 12 8 11 15 16 23 24 25 28
41 39 36 33 30 29 29 28 25 25 24 21 16 20 22 25 14 28 33 17 28 33 31 30 17 24 8 6 5 5 4 3 4 11 10 9 16 10 15 16 22 26 27 27 27
42 40 37 33 32 29 27 27 24 22 22 19 18 18 11 25 30 25 34 35 31 34 31 30 26 14 8 8 3 5 4 5 2 18 4 9 12 21 20 20 24 28 30 30 28
44 42 37 35 34 30 26 25 19 18 21 19 16 10 24 42 33 35 32 28 37 30 23 22 19 5 7 10 13 6 5 5 7 8 7 7 16 9 9 21 28 33 34 34 32
46 42 38 35 33 29 26 22 13 12 31 30 15 17 13 21 32 33 35 34 38 32 10 24 11 23 27 18 8 12 8 9 4 6 8 20 17 16 21 13 19 31 38 37 36
46 43 40 35 32 28 29 33 32 5 12 38 28 29 25 24 19 32 41 24 20 18 16 8 22 20 11 10 12 9 9 10 5 5 10 4 18 12 12 17 25 31 36 37 36
45 43 38 33 30 30 37 36 19 15 5 15 44 24 18 21 21 34 40 27 26 22 24 22 16 15 16 16 17 11 14 7 4 2 4 1 7 9 11 25 31 32 35 36 37
45 42 36 33 32 32 31 33 24 28 2 6 11 22 23 26 11 27 51 31 10 25 27 16 9 22 19 19 16 19 8 9 5 7 5 7 5 6 7 14 17 32 36 37 34
46 40 38 41 32 36 31 36 28 14 3 8 10 13 27 24 14 24 41 39 13 17 11 19 28 26 25 31 16 7 9 7 5 6 2 3 3 6 3 7 19 22 35 41 49
44 43 43 33 27 35 29 28 26 7 10 6 10 16 22 24 18 11 33 29 28 15 23 9 22 11 17 8 17 9 7 6 4 3 4 6 7 5 6 12 6 17 29 37 43
44 46 40 33 32 30 28 30 9 10 2 6 7 15 28 27 24 19 34 31 10 14 21 7 14 11 14 12 5 6 9 2 2 3 6 4 8 14 9 6 6 7 11 24 33
43 42 40 31 33 34 38 5 5 6 8 3 1 15 27 20 25 16 25 29 19 17 18 19 13 19 16 17 14 25 14 6 11 6 4 4 8 7 12 23 20 15 16 12 15
45 44 41 33 33 29 19 5 8 6 6 1 4 11 18 22 6 30 31 28 23 23 15 17 8 9 21 7 15 10 11 7 7 2 3 5 6 10 9 9 10 17 14 17 18
45 37 38 37 33 29 4 8 5 5 5 4 3 11 14 26 21 30 24 29 18 25 11 6 9 14 7 9 2 11 9 4 0 6 4 4 5 6 9 11 8 8 17 15 18
41 12 33 33 28 11 4 6 4 9 9 5 6 5 8 10 31 19 14 23 26 26 7 13 7 5 11 9 14 8 9 6 6 3 6 3 6 8 17 8 12 12 21 21 19
17 4 34 33 4 3 4 6 7 6 10 3 4 6 9 8 13 26 10 11 43 29 20 8 7 9 18 5 4 3 11 11 8 7 4 3 5 2 7 8 13 16 16 18 21
11 12 29 29 5 5 3 3 7 8 8 9 10 9 5 8 12 19 20 11 35 28 23 10 5 11 3 0 4 9 8 19 5 4 7 5 5 2 3 5 11 17 16 17 18
15 5 9 16 4 6 5 4 4 11 8 8 5 7 3 13 14 17 23 9 31 32 18 10 5 13 21 34 15 16 22 25 20 10 7 14 4 4 7 9 9 17 19 21 24
6 4 10 8 11 8 5 5 6 6 8 14 7 16 11 8 17 12 20 5 24 26 8 6 6 5 3 6 11 17 19 19 21 20 14 18 8 8 11 11 21 24 23 25 24
9 7 8 3 12 15 7 6 8 3 4 8 16 12 16 15 14 10 17 11 26 13 16 4 6 5 1 10 16 19 18 21 16 15 15 11 11 7 17 13 16 28 28 31 28
7 12 15 9 8 12 10 6 7 6 11 19 11 13 14 27 26 28 32 21 24 30 27 16 9 11 7 5 10 3 25 27 27 23 28 16 23 8 9 13 25 31 31 34 30
Wind_Direction
222 218 217 216 215 221 221 221 220 216 215 223 225 238 210 205 201 203 205 219 216 209 190 208 219 218 210 193 171 130 85 211 253 337 272 194 128 121 154 142 149 158 157 177 164
221 219 217 221 219 219 220 219 218 219 214 215 219 226 216 203 204 217 216 212 212 193 186 204 198 181 162 172 187 141 186 205 316 278 314 308 200 146 144 131 119 147 157 161 168
222 220 218 220 221 215 216 219 216 217 216 211 211 221 221 208 205 225 217 204 215 212 214 211 193 169 149 155 162 181 209 148 274 328 325 308 258 188 152 214 203 197 169 169 173
222 215 212 213 216 218 216 217 220 218 218 211 209 212 218 205 219 248 225 209 207 209 210 194 175 159 146 171 181 157 240 258 250 339 331 301 317 241 190 192 228 217 195 182 180
223 220 218 214 213 213 216 218 219 220 219 215 206 201 221 204 217 240 208 210 206 206 198 191 179 159 162 175 142 216 202 225 251 277 310 293 264 257 236 192 205 202 187 191 189
220 219 217 215 215 212 212 215 213 220 221 216 213 208 215 236 223 195 175 190 206 202 198 198 196 182 177 171 176 208 191 195 252 273 256 294 283 279 244 210 210 194 193 196 197
217 216 217 215 214 210 209 214 214 217 220 216 210 216 219 229 217 216 220 196 200 203 199 197 214 187 163 151 209 166 151 166 223 240 269 266 274 218 239 197 198 194 197 198 203
214 213 212 212 212 207 206 210 214 216 216 213 207 207 233 236 212 205 210 204 211 206 204 196 195 200 190 141 123 137 125 155 206 190 251 180 252 229 224 200 193 202 202 205 209
211 210 208 211 209 204 205 208 211 217 214 206 205 204 239 228 211 210 204 197 204 201 202 201 203 199 175 128 119 203 169 187 256 197 161 196 245 254 238 209 206 207 207 212 214
208 207 206 208 207 206 205 205 207 210 207 206 209 195 233 218 212 212 204 192 196 185 182 194 201 155 199 180 205 166 160 211 200 203 190 209 244 272 256 226 218 215 216 216 216
205 202 202 203 202 202 198 185 184 207 203 195 200 205 28 202 197 205 200 185 195 175 173 183 194 206 203 202 186 163 180 223 238 189 170 225 241 242 255 253 235 218 217 220 224
201 198 199 198 200 199 195 189 194 191 199 216 225 227 236 188 187 201 195 173 182 179 159 161 213 206 179 190 195 174 186 212 256 168 193 208 242 243 243 246 238 221 218 224 230
199 195 194 194 194 194 197 194 198 194 198 217 228 230 212 212 209 196 186 185 182 183 183 189 215 184 189 195 205 206 204 189 218 123 225 41 277 240 248 241 247 243 237 231 229
194 193 189 183 181 185 189 195 197 200 243 235 201 220 204 203 220 199 195 193 189 189 184 213 193 184 191 200 191 207 167 182 153 153 233 174 272 258 233 236 229 236 239 233 230
190 188 179 180 171 180 188 188 192 186 225 196 173 185 179 193 163 210 199 190 195 167 164 198 190 188 195 204 187 221 153 169 147 161 343 225 233 259 216 250 242 232 234 236 240
185 177 172 169 178 183 183 159 157 179 231 180 147 168 173 199 205 176 200 203 205 188 193 171 194 188 200 174 183 145 99 65 65 124 238 211 210 253 196 225 241 237 237 237 239
180 176 176 167 158 167 163 161 179 206 191 192 187 176 183 194 206 192 189 201 173 174 181 168 180 178 161 164 152 142 149 136 218 189 228 201 210 242 252 241 219 198 232 238 241
170 172 171 164 160 152 153 130 174 228 208 139 321 182 191 179 211 207 210 192 194 182 168 178 182 174 185 186 183 188 176 169 187 189 163 135 227 246 228 242 235 236 269 247 237
159 164 166 162 166 165 154 194 202 208 140 195 133 222 194 203 181 198 217 196 187 174 167 176 209 167 174 163 159 179 200 171 106 52 94 204 271 296 252 256 228 229 227 231 221
146 144 145 151 156 161 111 223 192 146 136 100 219 224 198 197 195 186 213 186 184 187 154 177 166 189 177 133 248 180 140 131 359 153 225 251 276 230 248 222 221 221 221 219 209
139 116 149 158 149 148 171 220 189 195 160 160 180 272 230 199 198 183 215 175 182 186 160 149 147 178 163 208 175 158 179 199 124 173 173 176 250 212 224 199 204 210 224 219 208
131 121 154 149 133 177 172 181 183 161 179 179 213 220 257 261 214 195 203 208 184 174 171 192 150 161 203 350 234 222 192 177 193 211 222 174 263 224 214 193 183 192 201 202 197
102 101 160 165 165 197 244 191 173 177 188 188 206 194 240 239 212 198 177 238 191 176 170 178 143 153 186 19 343 217 203 199 116 95 201 153 249 301 141 172 191 173 177 178 184
129 134 161 199 235 150 145 217 200 208 224 194 221 204 258 282 220 201 183 198 185 185 153 116 150 186 198 206 174 188 198 198 194 202 190 220 185 215 187 172 184 185 181 174 163
116 166 160 185 208 199 144 182 163 201 219 206 226 211 198 265 215 208 183 135 177 177 152 119 136 159 48 152 158 196 200 203 205 212 199 222 191 221 205 193 190 187 185 177 177
128 146 172 156 145 192 191 229 183 225 202 224 232 197 207 232 249 197 169 168 182 180 181 196 173 115 31 160 159 176 184 198 212 214 237 209 223 203 214 200 187 194 189 189 194
129 145 152 157 159 181 208 195 190 185 233 236 248 236 245 238 227 209 195 170 181 179 188 182 141 163 194 152 117 160 194 193 207 211 215 208 222 173 195 199 204 201 197 196 202